Weather History for Galveston, TX

Change the Weather History Date:

Wednesday, December 19, 2012

  Actual Average Record
Temperature  
Mean Temperature 71 °F 57 °F  
Max Temperature 76 °F 63 °F 76 °F (1998)
Min Temperature 65 °F 50 °F 23 °F (1929)
Degree Days  
Heating Degree Days 0 9  
Month to date heating degree days 53 146  
Since 1 July heating degree days 136 249  
Cooling Degree Days 6 0  
Month to date cooling degree days 67 14  
Year to date cooling degree days 3931 3303  
Growing Degree Days 20 (Base 50)    
Moisture  
Dew Point 69 °F    
Average Humidity 91    
Maximum Humidity 100    
Minimum Humidity 82    
Precipitation  
Precipitation T in 0.10 in 3.60 in (1878)
Month to date precipitation 2.18 2.30  
Year to date precipitation 46.52 49.54  
Snow  
Snow 0.00 in - 0.00 in (2001)
Month to date snowfall 0.0  
Since 1 July snowfall 0.0  
Snow Depth 0.00 in    
Sea Level Pressure  
Sea Level Pressure 29.82 in    
Wind  
Wind Speed 13 mph (SSE)    
Max Wind Speed 21 mph    
Max Gust Speed 25 mph    
Visibility 10 miles    
Events      
T = Trace of Precipitation, MM = Missing Value Source: NWS Daily Summary

Daily Weather History Graph

Daily Weather History Graph

Search for Another Location

Airport:

Trip Planner

Search our weather history database for the weather conditions in past years. The results will help you decide how hot, cold, wet, or windy it might be!

Date:

Astronomy

Dec. 19, 2012 Rise Set
Actual Time 7:08 AM CST 5:25 PM CST
Civil Twilight 6:42 AM CST 5:51 PM CST
Nautical Twilight 6:12 AM CST 6:20 PM CST
Astronomical Twilight 5:43 AM CST 6:49 PM CST
Moon 11:48 AM CST (12/19) No Moon Set
Length of Visible Light 11h 08m
Length of Day
10h 16m
Waxing Crescent, 45% of the Moon is Illuminated
Dec 19
Waxing Crescent
Dec 19
First Quarter
Dec 28
Full
Jan 4
Last Quarter
Jan 11
New

Hourly Weather History & Observations

Time (CST) Temp. Dew Point Humidity Pressure Visibility Wind Dir Wind Speed Gust Speed Precip Events Conditions
12:52 AM 66.0 °F 64.9 °F 96% 29.90 in 10.0 mi SSE 10.4 mph - N/A   Clear
1:52 AM 66.0 °F 66.0 °F 100% 29.89 in 10.0 mi SSE 11.5 mph - N/A   Clear
2:52 AM 66.9 °F 66.0 °F 97% 29.89 in 10.0 mi SSE 11.5 mph - N/A   Clear
3:52 AM 66.9 °F 66.0 °F 97% 29.87 in 10.0 mi SSE 12.7 mph - N/A   Clear
4:52 AM 68.0 °F 66.0 °F 93% 29.85 in 10.0 mi SSE 13.8 mph - N/A   Clear
5:52 AM 66.9 °F 66.0 °F 97% 29.86 in 10.0 mi SSE 12.7 mph - N/A   Clear
6:52 AM 66.9 °F 66.9 °F 100% 29.86 in 9.0 mi SSE 12.7 mph - N/A   Clear
7:52 AM 68.0 °F 68.0 °F 100% 29.87 in 7.0 mi SSE 9.2 mph - N/A   Clear
8:52 AM 70.0 °F 69.1 °F 97% 29.89 in 9.0 mi SSE 11.5 mph - N/A   Clear
9:52 AM 72.0 °F 70.0 °F 93% 29.89 in 10.0 mi SSE 15.0 mph - N/A   Partly Cloudy
10:52 AM 73.0 °F 70.0 °F 90% 29.88 in 10.0 mi SSE 15.0 mph - N/A   Clear
11:52 AM 75.0 °F 70.0 °F 84% 29.86 in 10.0 mi South 16.1 mph - N/A   Clear
12:52 PM 75.0 °F 70.0 °F 84% 29.81 in 10.0 mi South 18.4 mph 24.2 mph N/A   Mostly Cloudy
1:52 PM 73.0 °F 70.0 °F 90% 29.80 in 10.0 mi South 15.0 mph - N/A   Mostly Cloudy
2:07 PM 73.4 °F 69.8 °F 88% 29.80 in 10.0 mi South 13.8 mph - N/A   Partly Cloudy
2:52 PM 73.0 °F 70.0 °F 90% 29.79 in 10.0 mi SSE 11.5 mph - N/A   Partly Cloudy
3:52 PM 72.0 °F 70.0 °F 93% 29.79 in 10.0 mi South 12.7 mph - N/A   Partly Cloudy
3:59 PM 71.6 °F 69.8 °F 94% 29.79 in 10.0 mi South 12.7 mph - N/A   Overcast
4:52 PM 71.1 °F 69.1 °F 93% 29.78 in 10.0 mi SSE 10.4 mph - N/A   Scattered Clouds
4:59 PM 71.6 °F 69.8 °F 94% 29.79 in 10.0 mi SSE 9.2 mph - N/A   Overcast
5:10 PM 69.8 °F 69.8 °F 100% 29.79 in 10.0 mi South 10.4 mph - N/A   Scattered Clouds
5:52 PM 70.0 °F 69.1 °F 97% 29.78 in 10.0 mi SSE 9.2 mph - N/A   Overcast
6:52 PM 72.0 °F 71.1 °F 97% 29.77 in 10.0 mi South 18.4 mph - 0.00 in   Scattered Clouds
7:03 PM 69.8 °F 69.8 °F 100% 29.77 in 10.0 mi South 13.8 mph - N/A   Mostly Cloudy
7:11 PM 71.6 °F 71.6 °F 100% 29.77 in 10.0 mi South 13.8 mph - N/A   Mostly Cloudy
7:22 PM 69.8 °F 69.8 °F 100% 29.78 in 10.0 mi South 12.7 mph - N/A   Overcast
7:52 PM 70.0 °F 70.0 °F 100% 29.79 in 10.0 mi South 13.8 mph - N/A   Mostly Cloudy
8:52 PM 70.0 °F 70.0 °F 100% 29.78 in 8.0 mi South 15.0 mph - N/A   Mostly Cloudy
9:52 PM 70.0 °F 70.0 °F 100% 29.79 in 8.0 mi South 15.0 mph - N/A   Overcast
10:52 PM 69.1 °F 69.1 °F 100% 29.78 in 8.0 mi South 12.7 mph - N/A   Overcast
11:52 PM 70.0 °F 70.0 °F 100% 29.80 in 9.0 mi South 12.7 mph - N/A   Overcast